User: anonymous   Login
Location: Wald
(31.7579°N, 86.6655°W)
Time: 12:11:28
(UTC+00:00)
Language:

Landsat 5 - Orbit

View from above orbital plane
View from above orbital plane
View from above satellite
View from above satellite

Ground track
Ground track

The orbit data is extracted from the following two-line orbital elements,

1 14780U 84021A   20262.51574673 +.00000171 +00000-0 +22000-4 0  9992
2 14780 098.1835 063.1021 0089163 217.8389 141.6540 14.92102752477657
Epoch (UTC): 18 September 2020 12:22:40
Eccentricity: 0.0089163
inclination: 98.1835°
perigee height: 529 km
apogee height: 653 km
right ascension of ascending node: 63.1021°
argument of perigee: 217.8389°
revolutions per day: 14.92102752
mean anomaly at epoch: 141.6540°
orbit number at epoch: 47765

The dashed part of the orbit path shows where the satellite is in the earth's shadow,  

DLR